Location: Izdebno
(52.6670°N, 16.2170°E)
Time: 00:46:10
(UTC+01:00)

ISS - Visible Passes

Search period start: 26 January 2020 00:00
Search period end: 05 February 2020 00:00
Orbit: 416 x 423 km, 51.6° (Epoch: 26 January)

Date Brightness Start Highest point End Pass type
(mag) Time Alt. Az. Time Alt. Az. Time Alt. Az.
26 Jan -3.6 18:28:14 10° WSW 18:31:35 57° SSE 18:31:57 52° SE visible
26 Jan -0.1 20:04:54 10° W 20:04:55 10° W 20:04:55 10° W visible
27 Jan -3.1 17:40:51 10° SW 17:44:07 46° SSE 17:46:24 17° E visible
27 Jan -2.0 19:17:24 10° W 19:19:22 32° W 19:19:22 32° W visible
28 Jan -3.8 18:29:54 10° W 18:33:17 74° S 18:33:48 59° ESE visible
28 Jan -0.2 20:06:40 10° W 20:06:45 11° W 20:06:45 11° W visible
29 Jan -3.6 17:42:24 10° WSW 17:45:46 67° S 17:48:13 17° E visible
29 Jan -2.0 19:19:08 10° W 19:21:11 33° W 19:21:11 33° W visible
30 Jan -3.7 18:31:36 10° W 18:34:59 74° S 18:35:36 55° ESE visible
30 Jan -0.2 20:08:26 10° W 20:08:34 11° W 20:08:34 11° W visible
31 Jan -3.7 17:44:03 10° W 17:47:26 76° S 17:50:03 16° E visible
31 Jan -2.0 19:20:50 10° W 19:23:01 33° WSW 19:23:01 33° WSW visible
01 Feb -3.4 18:33:16 10° W 18:36:37 58° SSW 18:37:29 41° SE visible
01 Feb -0.2 20:10:24 10° W 20:10:27 10° W 20:10:27 10° W visible
02 Feb -3.5 17:45:42 10° W 17:49:04 68° S 17:52:00 13° ESE visible
02 Feb -1.8 19:22:38 10° W 19:24:58 26° SW 19:24:58 26° SW visible
03 Feb -2.5 18:34:57 10° W 18:38:06 36° SSW 18:39:35 24° SSE visible
04 Feb -2.8 17:47:19 10° W 17:50:35 47° SSW 17:53:51 10° SE visible
04 Feb -1.1 19:24:51 10° WSW 19:26:49 15° SW 19:27:16 14° SSW visible
